Seward, AK

8:11 AM AKDT on September 29, 2016 (GMT -0800)
Seward

Weather History for PAWD - October, 2013

Change the Weather History Date:

Monday, October 7, 2013

  Actual Average Record
Temperature  
Mean Temperature 45 °F -  
Max Temperature 54 °F 47 °F 58 °F (1993)
Min Temperature 37 °F 38 °F 29 °F (1958)
Degree Days  
Heating Degree Days 20    
Moisture  
Dew Point 38 °F    
Average Humidity 78    
Maximum Humidity 93    
Minimum Humidity 54    
Precipitation  
Precipitation 0.16 in - - ()
Sea Level Pressure  
Sea Level Pressure 29.80 in    
Wind  
Wind Speed 9 mph (North)    
Max Wind Speed 14 mph    
Max Gust Speed 21 mph    
Visibility 9 miles    
Events Rain    
Averages and records for this station are not official NWS values.
T = Trace of Precipitation, MM = Missing Value Source: NWS Daily Summary

Daily Weather History Graph

Daily Weather History Graph

Search for Another Location

Airport or City:

Trip Planner

Search our weather history database for the weather conditions in past years. The results will help you decide how hot, cold, wet, or windy it might be!

Date:

Astronomy

Oct. 07, 2013 Rise Set
Actual Time 8:18 AM AKDT 7:10 PM AKDT
Civil Twilight 7:37 AM AKDT 7:52 PM AKDT
Nautical Twilight 6:48 AM AKDT 8:40 PM AKDT
Astronomical Twilight 5:58 AM AKDT 9:30 PM AKDT
Moon 12:12 PM AKDT (10/7) 8:07 PM AKDT (10/7)
Length of Visible Light 12h 15m
Length of Day
10h 51m
Waxing Crescent, 9% of the Moon is Illuminated
Oct 7
Waxing Crescent
Oct 11
First Quarter
Oct 18
Full
Oct 26
Last Quarter
Nov 3
New

Hourly Weather History & Observations

Time (AKDT) Temp. Windchill Dew Point Humidity Pressure Visibility Wind Dir Wind Speed Gust Speed Precip Events Conditions
12:53 AM 37.9 °F 31.5 °F 36.0 °F 93% 29.73 in 10.0 mi North 9.2 mph - N/A   Clear
1:53 AM 37.9 °F 30.9 °F 35.1 °F 89% 29.73 in 10.0 mi North 10.4 mph - N/A   Clear
2:53 AM 37.0 °F 31.0 °F 34.0 °F 89% 29.73 in 10.0 mi North 8.1 mph - N/A   Clear
3:53 AM 39.0 °F 32.3 °F 33.1 °F 79% 29.73 in 10.0 mi North 10.4 mph - N/A   Clear
4:53 AM 39.0 °F 32.3 °F 33.1 °F 79% 29.75 in 10.0 mi North 10.4 mph - N/A   Clear
5:53 AM 39.9 °F 32.1 °F 33.1 °F 77% 29.76 in 10.0 mi North 13.8 mph - N/A   Clear
6:53 AM 39.9 °F 32.9 °F 33.1 °F 77% 29.78 in 10.0 mi NNE 11.5 mph 19.6 mph N/A   Clear
7:53 AM 39.0 °F 32.3 °F 33.1 °F 79% 29.79 in 10.0 mi North 10.4 mph - N/A   Clear
8:53 AM 39.9 °F 33.9 °F 34.0 °F 79% 29.80 in 10.0 mi North 9.2 mph - N/A   Clear
9:53 AM 39.9 °F 32.9 °F 35.1 °F 83% 29.81 in 10.0 mi NNE 11.5 mph - N/A   Clear
10:53 AM 43.0 °F 36.4 °F 36.0 °F 76% 29.82 in 10.0 mi North 12.7 mph - N/A   Clear
11:53 AM 46.9 °F - 37.0 °F 68% 29.82 in 10.0 mi North 9.2 mph - N/A   Clear
12:53 PM 48.9 °F - 37.0 °F 64% 29.83 in 10.0 mi NNE 8.1 mph - N/A   Clear
1:53 PM 51.1 °F - 36.0 °F 56% 29.83 in 10.0 mi North 8.1 mph - N/A   Clear
2:53 PM 52.0 °F - 37.0 °F 57% 29.83 in 10.0 mi NE 6.9 mph - N/A   Clear
3:53 PM 52.0 °F - 36.0 °F 54% 29.83 in 10.0 mi North 5.8 mph - N/A   Clear
4:53 PM 53.1 °F - 37.0 °F 55% 29.83 in 10.0 mi North 4.6 mph - N/A   Clear
5:53 PM 48.0 °F - 39.9 °F 74% 29.83 in 10.0 mi South 3.5 mph - N/A   Clear
6:53 PM 48.0 °F - 39.9 °F 74% 29.82 in 10.0 mi SSW 4.6 mph - N/A   Clear
7:53 PM 45.0 °F - 41.0 °F 86% 29.83 in 10.0 mi Calm Calm - N/A   Overcast
8:53 PM 45.0 °F - 41.0 °F 86% 29.82 in 10.0 mi Calm Calm - 0.00 in Rain Light Rain
9:53 PM 46.9 °F - 42.1 °F 83% 29.81 in 10.0 mi South 5.8 mph - 0.01 in Rain Light Rain
10:22 PM 46.4 °F 41.9 °F 42.8 °F 87% 29.81 in 9.0 mi SSW 9.2 mph - 0.02 in Rain Light Rain
10:53 PM 46.0 °F 41.9 °F 44.1 °F 93% 29.81 in 5.0 mi South 8.1 mph - 0.07 in Rain Rain
11:13 PM 46.4 °F 41.9 °F 44.6 °F 93% 29.81 in 5.0 mi SSE 9.2 mph - 0.05 in Rain Rain
11:25 PM 46.4 °F 41.9 °F 42.8 °F 87% 29.80 in 7.0 mi South 9.2 mph - 0.06 in Rain Light Rain
11:34 PM 46.4 °F 40.7 °F 42.8 °F 87% 29.80 in 8.0 mi South 12.7 mph 19.6 mph 0.07 in Rain Light Rain
11:53 PM 46.0 °F 39.9 °F 43.0 °F 89% 29.79 in 9.0 mi SSW 13.8 mph 20.7 mph 0.08 in Rain Light Rain